User: anonymous
Location: Unspecified
(0.0000°N, 0.0000°E)
Time: 10:02:38
(UTC+02:00)
Language:

ADEOS II - Orbit

View from above orbital plane
View from above orbital plane
View from above satellite
View from above satellite

Ground track
Ground track

The orbit data is extracted from the following two-line orbital elements,

1 27597U 02056A   14238.13461719  .00000133  00000-0  71411-4 0  3789
2 27597 098.2766 242.2912 0002264 107.6217 296.0946 14.26843307609076
Epoch (UTC): 26 August 2014 03:13:50
Eccentricity: 0.0002264
inclination: 98.2766°
perigee height: 800 km
apogee height: 804 km
right ascension of ascending node: 242.2912°
argument of perigee: 107.6217°
revolutions per day: 14.26843307
mean anomaly at epoch: 296.0946°
orbit number at epoch: 60907

The dashed part of the orbit path shows where the satellite is in the earth's shadow,  

DLR